User: anonymous   Login
Location: Piotrkow Trybunalski
(51.4000°N, 19.6830°E)
Time: 23:57:56
(UTC+01:00)
Language:

S-56A Canister/Altair - Orbit

View from above orbital plane
View from above orbital plane
View from above satellite
View from above satellite

Ground track
Ground track

The orbit data is extracted from the following two-line orbital elements,

1 00082U 61004B   24062.50925938  .00000712  00000-0  64239-3 0  9993
2 00082  38.8501 224.7657 1163823 138.9348 230.5087 12.26576779974018
Epoch (UTC): 02 March 2024 12:13:20
Eccentricity: 0.1163823
inclination: 38.8501°
perigee height: 640 km
apogee height: 2488 km
right ascension of ascending node: 224.7657°
argument of perigee: 138.9348°
revolutions per day: 12.26576779
mean anomaly at epoch: 230.5087°
orbit number at epoch: 97401

The dashed part of the orbit path shows where the satellite is in the earth's shadow,  

DLR